CZ-2F R/B (59592 NORAD) Tracking and Keplerian Element Data

This shows tracking and keplerian element data for the satellite.

Feedback or suggestion? Click here.




ElementValue
Catalog59592
NameCZ-2F R/B
Epoch Orbit159
Epoch Day126.36634259
Epoch Year2024
RAAN340.0516
Inclination41.461
Eccentricity0.0040005
Argument of Perigee210.4591
Mean Anonmoly157.1387
Mean Motion16.32335318
Decay Rate0.03303401
L11 59592U 24078B 24126.36634259 .03303401 78658-5 40471-3 0 9996
L22 59592 41.4610 340.0516 0040005 210.4591 157.1387 16.32335318 1590



Live tracking and technical data element details for CZ-2F R/B (NORAD 59592). CZ-2F R/B can be tracked NOW for your location showing map with azimuth and elevation plus other details from your city location.







IsCatalogInMostPopularTable: catalog: 59592, numindb: 12
Update: records affected: 1



GetName: 59592 CZ-2F R/B

Hit Count: updated at: Fri, 14 Jun 2024 18:07:55 GMT